Weather History for Joplin, MO

Change the Weather History Date:

Saturday, January 26, 2013

  Actual Average Record
Temperature  
Mean Temperature 45 °F 36 °F  
Max Temperature 59 °F 46 °F 67 °F (1953)
Min Temperature 31 °F 25 °F 3 °F (1963)
Degree Days  
Heating Degree Days 20 30  
Month to date heating degree days 762 780  
Since 1 July heating degree days 2259 2397  
Cooling Degree Days 0 0  
Month to date cooling degree days 0 0  
Year to date cooling degree days 0 0  
Moisture  
Dew Point 24 °F    
Average Humidity 54    
Maximum Humidity 85    
Minimum Humidity 23    
Precipitation  
Precipitation T in 0.06 in 1.33 in (1967)
Month to date precipitation 0.86 1.70  
Year to date precipitation 0.86 1.70  
Sea Level Pressure  
Sea Level Pressure 30.21 in    
Wind  
Wind Speed 6 mph (SE)    
Max Wind Speed 14 mph    
Max Gust Speed 20 mph    
Visibility 10 miles    
Events      
T = Trace of Precipitation, MM = Missing Value Source: NWS Daily Summary

Daily Weather History Graph

Daily Weather History Graph

Search for Another Location

Airport:

Trip Planner

Search our weather history database for the weather conditions in past years. The results will help you decide how hot, cold, wet, or windy it might be!

Date:

Astronomy

Jan. 26, 2013 Rise Set
Actual Time 7:25 AM CST 5:36 PM CST
Civil Twilight 6:57 AM CST 6:04 PM CST
Nautical Twilight 6:25 AM CST 6:35 PM CST
Astronomical Twilight 5:55 AM CST 7:06 PM CST
Moon 5:31 PM CST (1/26) 6:44 AM CST (1/26)
Length of Visible Light 11h 07m
Length of Day
10h 11m
Full, 100% of the Moon is Illuminated
Jan 26
Full
Jan 26
Full
Feb 3
Last Quarter
Feb 10
New
Feb 17
First Quarter

Hourly Weather History & Observations

Time (CST) Temp. Windchill Dew Point Humidity Pressure Visibility Wind Dir Wind Speed Gust Speed Precip Events Conditions
12:53 AM 33.1 °F - 26.1 °F 75% 30.28 in 8.0 mi Calm Calm - N/A   Clear
1:53 AM 32.0 °F 28.7 °F 25.0 °F 75% 30.27 in 10.0 mi SSE 3.5 mph - N/A   Clear
2:53 AM 32.0 °F - 26.1 °F 79% 30.27 in 9.0 mi Calm Calm - N/A   Clear
3:53 AM 32.0 °F - 25.0 °F 75% 30.27 in 9.0 mi Calm Calm - N/A   Clear
4:53 AM 30.9 °F - 26.1 °F 82% 30.27 in 8.0 mi Calm Calm - N/A   Clear
5:53 AM 35.1 °F 30.1 °F 25.0 °F 67% 30.26 in 10.0 mi East 5.8 mph - N/A   Clear
6:53 AM 35.1 °F 27.9 °F 25.0 °F 67% 30.27 in 10.0 mi SE 9.2 mph - N/A   Clear
7:53 AM 36.0 °F 31.1 °F 25.0 °F 64% 30.29 in 10.0 mi SE 5.8 mph - N/A   Clear
8:53 AM 42.1 °F 37.1 °F 24.1 °F 49% 30.28 in 10.0 mi East 8.1 mph - N/A   Clear
9:53 AM 48.0 °F - 21.9 °F 36% 30.27 in 10.0 mi ESE 11.5 mph - N/A   Clear
10:53 AM 51.1 °F - 21.9 °F 32% 30.28 in 10.0 mi SE 13.8 mph - N/A   Clear
11:53 AM 54.0 °F - 21.9 °F 29% 30.27 in 10.0 mi ESE 8.1 mph - N/A   Clear
12:53 PM 57.9 °F - 24.1 °F 27% 30.22 in 10.0 mi SE 10.4 mph 18.4 mph N/A   Clear
1:53 PM 59.0 °F - 21.0 °F 23% 30.18 in 10.0 mi ESE 13.8 mph 19.6 mph N/A   Clear
2:53 PM 57.9 °F - 23.0 °F 26% 30.16 in 10.0 mi SE 11.5 mph - N/A   Clear
3:53 PM 59.0 °F - 24.1 °F 26% 30.16 in 10.0 mi ESE 10.4 mph - N/A   Clear
4:53 PM 55.9 °F - 24.1 °F 29% 30.14 in 10.0 mi ESE 9.2 mph - N/A   Mostly Cloudy
5:53 PM 51.1 °F - 24.1 °F 35% 30.14 in 10.0 mi ESE 5.8 mph - N/A   Partly Cloudy
6:53 PM 52.0 °F - 24.1 °F 34% 30.15 in 10.0 mi ESE 8.1 mph - N/A   Mostly Cloudy
7:53 PM 51.1 °F - 24.1 °F 35% 30.16 in 10.0 mi SSE 10.4 mph 18.4 mph N/A   Overcast
8:12 PM 50.0 °F - 24.8 °F 37% 30.15 in 10.0 mi SSE 10.4 mph 18.4 mph N/A   Overcast
8:53 PM 51.1 °F - 24.1 °F 35% 30.15 in 10.0 mi North - - N/A   Overcast
9:53 PM 50.0 °F - 25.0 °F 38% 30.13 in 10.0 mi SE 6.9 mph - N/A   Overcast
10:25 PM 50.0 °F - 24.8 °F 37% 30.12 in 10.0 mi SSE 8.1 mph - N/A   Overcast
10:53 PM 51.1 °F - 21.9 °F 32% 30.12 in 10.0 mi SE 9.2 mph - N/A   Overcast
11:53 PM 50.0 °F - 21.9 °F 33% 30.12 in 10.0 mi SE 10.4 mph - 0.00 in   Overcast